Regional Weather Roundup
Issued by NWS

Home | Current Version | Previous Version | Text Only | Print | Product List | Glossary Off
Versions: 1 2 3 4 5 6 7 8 9 10 11 12 13 14 15 16 17 18 19 20 21 22 23 24 25 26 27 28 29 30 31 32 33 34 35 36 37 38 39 40 41 42 43 44 45 46 47 48 49 50

000
ASUS43 KMPX 241401
RWRMN
WEATHER ROUNDUP FOR MINNESOTA
NATIONAL WEATHER SERVICE TWIN CITIES/CHANHASSEN MN
800 AM CST MON NOV 24 2014


NOTE: "FAIR" INDICATES FEW OR NO CLOUDS BELOW 12,000 FEET WITH NO
SIGNIFICANT WEATHER AND/OR OBSTRUCTIONS TO VISIBILITY. N/A MEANS
CURRENT SKY AND/OR WEATHER CONDITIONS ARE NOT AVAILABLE.

MNZ060>063-068>070-241500-
   Twin Cities Metro

CITY           SKY/WX    TMP DP  RH WIND       PRES   REMARKS
TWIN CITIES    CLOUDY    23  19  85 W17       29.38R WCI   9
ST PAUL        CLOUDY    24  20  84 NW20G28   29.38R WCI  10
CRYSTAL        CLOUDY    24  18  77 NW16G25   29.37R WCI  11
BLAINE         CLOUDY    25  23  93 W18G24    29.36R WCI  11
LAKEVILLE      CLOUDY    21  19  93 W14G22    29.38R FOG     WCI   8
EDEN PRAIRIE   CLOUDY    23  18  81 NW14G25   29.39R WCI  11
SOUTH ST PAUL  CLOUDY    25  22  88 NW13G20   29.37R WCI  13
LAKE ELMO      CLOUDY    27  23  86 NW15G22   29.35R WCI  15
$$
MNZ001>005-007-008-013>017-022>024-027-028-241500-
   Northwest Minnesota

CITY           SKY/WX    TMP DP  RH WIND       PRES   REMARKS
BEMIDJI        LGT SNOW  13  10  85 NW16      29.50R WCI  -3
HALLOCK        CLOUDY     7   1  78 N25G33    29.71R WCI -15
ROSEAU         FLURRIES  10   7  85 N16       29.62R WCI  -7
WARROAD        FLURRIES  10   7  85 N10G21    29.60R WCI  -3
THIEF RVR FALL CLOUDY     9   1  72 NW21G26   29.62R WCI -11
CROOKSTON      FLURRIES   9   5  85 N25G31    29.68R WCI -13
FOSSTON        LGT SNOW   9   3  78 NW18      29.59R WCI -10
DETROIT LAKES  LGT SNOW  12   9  85 N20G28    29.57R WCI  -6
MOORHEAD       MIX PCPN  10   9  92 N23G31    29.67R WCI -10
PARK RAPIDS    FLURRIES  13   8  81 NW18G26   29.48R WCI  -4
MAHNOMEN       LGT SNOW  10   6  85 NW17      29.58R WCI  -8
$$
MNZ006-009>011-018-025>026-241500-
   North Central Minnesota

CITY           SKY/WX    TMP DP  RH WIND       PRES   REMARKS
BAUDETTE       FLURRIES  13   9  84 N18G26    29.53R WCI  -4
FLAG ISLAND    CLOUDY    10   7  85 N22G28    29.59R HAZE    WCI  -9
INTL FALLS     CLOUDY    20  15  81 N21G26    29.45R WCI   4
WASKISH        LGT SNOW  16  12  86 NW12G18   29.51R WCI   3
BIG FORK       LGT SNOW  23  19  86 N7        29.42R WCI  15
LONGVILLE      MIX PCPN  16  14  93 NW13G18   29.43R WCI   2
GRAND RAPIDS   CLOUDY    21  19  93 NW20      29.36R WCI   6
CRANE LAKE     CLOUDY    21  19  93 NW14G24   29.40R WCI   8
ORR            CLOUDY    23  19  86 NW9       29.35R WCI  13
COOK           LGT SNOW  25  25 100 NW6       29.35R WCI  18
WALKER         LGT SNOW  13  10  85 NW9G21    29.46R WCI   1
$$
MNZ012-019>021-037-241500-
   Northeast Minnesota

CITY           SKY/WX    TMP DP  RH WIND       PRES   REMARKS
DULUTH         LGT SNOW  30  27  88 NW17G29   29.24R VSB 1   WCI  18
ELY            LGT SNOW  27  25  93 N10G21    29.28R WCI  17
HIBBING        MIX PCPN  29  23  78 N22G30    29.32R WCI  15
EVELETH        MIX PCPN  30  28  93 N15G26    29.30R WCI  19
DULUTH HARBOR  CLOUDY    34  28  80 CALM      29.27R
TWO HARBORS    LGT SNOW  37  32  81 N8G18     29.19R
SILVER BAY     CLOUDY    36  28  75 NW10G20   29.19R
GRAND MARAIS     N/A     29  23  78 N22G46    29.13R WCI  15
G MARAIS ARPRT LGT SNOW  21  18  86 NW18G30   29.16R WCI   6
$$
MNZ029>031-032-039>041-046>048-054>057-064-241500-
   West Central Minnesota

CITY           SKY/WX    TMP DP  RH WIND       PRES   REMARKS
FERGUS FALLS   LGT SNOW  10   5  79 NW21G32   29.63R WCI  -9
WHEATON        LGT SNOW  10   7  85 NW18G26   29.66R WCI  -8
MORRIS         LGT SNOW  12   9  85 NW28G37   29.56R VSB 1   WCI  -9
ALEXANDRIA     LGT SNOW  13   7  77 NW25G33   29.50R WCI  -7
ELBOW LAKE     LGT SNOW  11   8  87 NW24G32   29.57R WCI  -9
WADENA         LGT SNOW  12   9  85 NW18G24   29.49R WCI  -5
GLENWOOD       FLURRIES  14   9  79 NW23G32   29.50R WCI  -5
APPLETON       LGT SNOW  16  10  79 NW30G39   29.59R WCI  -4
BENSON         LGT SNOW  12   9  85 N26G39    29.54R WCI  -8
ORTONVILLE     FLURRIES  12   7  79 NW21G33   29.61R WCI  -6
MADISON        LGT SNOW  19  12  73 NW24G31   29.61R WCI   2
WILLMAR        LGT SNOW  16  10  79 NW26G35   29.51R WCI  -3
$$
MNZ033>034-036-042>043-049>051-058-059-241500-
   Central Minnesota

CITY           SKY/WX    TMP DP  RH WIND       PRES   REMARKS
ST CLOUD       CLOUDY    21  14  74 NW23G32   29.41R WCI   5
SAUK CENTRE    FLURRIES  15  10  78 NW20G35   29.47R WCI  -2
PAYNESVILLE    FLURRIES  14  10  85 W15G25    29.48R WCI  -1
AITKIN         CLOUDY    23  18  80 NW9G16    29.38R WCI  13
PINE RIVER     FLURRIES  16  12  86 NW14G21   29.48R WCI   1
BRAINERD       CLOUDY    18  15  88 NW15      29.43R WCI   4
STAPLES        LGT SNOW  14  10  85 NW16G23   29.47R WCI  -2
LONG PRAIRIE   CLOUDY    14  10  85 NW24G33   29.46R WCI  -5
LITTLE FALLS   CLOUDY    19  12  73 NW15      29.44R WCI   5
LITCHFIELD     FLURRIES  18  16  93 NW21G28   29.46R WCI   1
BUFFALO        CLOUDY    21  16  80 W20       29.42R WCI   6
MAPLE LAKE     CLOUDY    21  17  85 NW18      29.42R WCI   6
$$
MNZ037-044-045-052-053-241500-
   East Central Minnesota

CITY           SKY/WX    TMP DP  RH WIND       PRES   REMARKS
PRINCETON      CLOUDY    23  19  86 NW17G28   29.38R WCI   9
MORA           CLOUDY    25  21  86 NW22G29   29.36R WCI  10
CAMBRIDGE      CLOUDY    27  18  69 NW14      29.35R WCI  15
RUSH CITY      CLOUDY    25  22  88 NW14G24   29.34R WCI  14
MOOSE LAKE     CLOUDY    27  23  86 NW15G23   29.30R FOG     WCI  15
HINCKLEY       CLOUDY    27  25  93 NW12G23   29.32R FOG     WCI  16
CLOQUET        CLOUDY    28  25  86 NW17G25   29.27R WCI  16
MCGREGOR       CLOUDY    23  21  93 NW15G22   29.36R WCI  10
$$
MNZ071>073-080-081-089-090-097-098-241500-
   Southwest Minnesota

CITY           SKY/WX    TMP DP  RH WIND       PRES   REMARKS
MONTEVIDEO     FLURRIES  14  10  85 N22G33    29.58R WCI  -4
GRANITE FALLS  FLURRIES  15  10  78 NW28G37   29.58R WCI  -4
CANBY          LGT SNOW  16  11  82 NW17G25   29.61R WCI   0
MARSHALL       CLOUDY    16   7  67 NW31G37   29.56R WCI  -5
REDWOOD FALLS  FLURRIES  17  10  74 NW24G35   29.52R WCI  -1
OLIVIA         MOCLDY    18  12  79 NW24G40   29.51R WCI   0
PIPESTONE      LGT SNOW  18  12  79 NW21G31   29.57R WCI   1
WINDOM         FLURRIES  18  12  79 NW31G38   29.50R WCI  -2
WORTHINGTON    CLOUDY    19  12  73 NW26G35   29.53R WCI   1
JACKSON        CLOUDY    19  12  73 NW28G36   29.49R WCI   1
TRACY          FLURRIES  17  12  80 NW22G36   29.55R WCI   0
SLAYTON        FLURRIES  17  13  82 NW24G32   29.54R WCI  -1
$$
MNZ065>067-074>077-082>085-091>093-241500-
   South Central Minnesota

CITY           SKY/WX    TMP DP  RH WIND       PRES   REMARKS
MANKATO        CLOUDY    19  10  68 NW18G26   29.45R WCI   4
NEW ULM        CLOUDY    18  12  79 NW31G37   29.47R WCI  -2
ST JAMES       CLOUDY    19  12  73 NW25G37   29.49R WCI   2
FAIRMONT       CLOUDY    19  12  73 NW26G36   29.47R WCI   1
GLENCOE        CLOUDY    21  17  83 NW25      29.43R WCI   4
FARIBAULT      CLOUDY    21  19  93 W14G26    29.39R WCI   8
OWATONNA       CLOUDY    21  18  86 W18G30    29.39R WCI   6
WASECA         CLOUDY    19  14  79 NW23G31   29.42R WCI   2
ALBERT LEA     CLOUDY    21  19  93 NW16G28   29.38R WCI   7
$$
MNZ078>079-086>088-094>096-241500-
   Southeast Minnesota

CITY           SKY/WX    TMP DP  RH WIND       PRES   REMARKS
ROCHESTER      LGT SNOW  24  22  91 NW24G33   29.31R FOG     WCI   8
RED WING         N/A     27  25  93 NW17G23   29.32R WCI  14
STANTON        CLOUDY    25  22  87 W16G23    29.36R FOG     WCI  13
DODGE CENTER   CLOUDY    23  23 100 NW18G29   29.33R FOG     WCI   9
WINONA         LGT SNOW  32  30  93 NW14G24   29.27R WCI  22
AUSTIN         CLOUDY    21  19  93 NW21G30   29.36R FOG     WCI   6
PRESTON        LGT SNOW  25  23  92 NW21G35   29.30R WCI  10
$$
ABBREVIATIONS USED IN REMARKS
   TC - TEMPERATURES IN CELSIUS
  WCI - WIND CHILL INDEX
   HX - HEAT INDEX
  VSB - VISIBILITY
$$


USA.gov is the U.S. government's official web portal to all federal, state and local government web resources and services.